018  
ASUS43 KIWX 182210  
RWRIWX  
 
KIWX WEATHER ROUNDUP  
NATIONAL WEATHER SERVICE NORTHERN INDIANA  
600 PM EDT THU JUL 18 2019  
 
NOTE: "FAIR" INDICATES FEW OR NO CLOUDS BELOW 12,000 FEET WITH NO  
SIGNIFICANT WEATHER AND/OR S TO VISIBILITY
.  
 
* THESE STATIONS ARE NOT UNDER NWS QUALITY CONTROL. THEY ALSO MAY NOT  
REPORT WEATHER SUCH AS PRECIPITATION OR FOG.
 
 
INZ001>027-182300-  
NORTHERN INDIANA  
 
CITY SKY/WX TMP DP RH WIND PRES REMARKS
 
GARY* MOSUNNY 86 75 70 S12G23 29.79F HX 95  
VALPARAISO FAIR 88 75 65 S13 29.80F HX 97  
MICHIGAN CITY* FAIR 84 59 42 S15G24 29.77S  
LAPORTE* FAIR N/A N/A N/A SW16G22 29.79S  
KNOX* FAIR 84 73 70 MISG 29.79F  
SOUTH BEND FAIR 83 74 74 S14G23 29.79S  
ELKHART* SUNNY N/A N/A N/A SW9 29.79S  
GOSHEN FAIR 84 73 69 S15G21 29.79F  
MONTICELLO* FAIR 89 76 65 S6 29.81F HX 100  
LOGANSPORT* FAIR 90 73 58 S8 29.83F HX 98  
ROCHESTER* FAIR 88 75 66 S8 29.82F HX 97  
WARSAW* FAIR 82 73 74 S8 29.80F  
KENDALLVILLE* FAIR 82 72 70 S13G18 29.81F  
AUBURN* FAIR 81 73 78 S7 29.82F  
FORT WAYNE PTSUNNY 84 76 76 S12 29.83F  
HUNTINGTON* FAIR N/A N/A N/A S13 29.82F  
PERU/GRISSOM FAIR 92 74 55 S14G22 29.82F HX 102  
 

 
INZ028>050-182300-  
CENTRAL INDIANA  
 
CITY SKY/WX TMP DP RH WIND PRES REMARKS
 
LAFAYETTE FAIR 90 76 63 SW12G20 29.81F HX 101  
KOKOMO* HAZE 91 74 57 S15G21 29.84F VSB 1/2 HX 100  
MUNCIE* FAIR 92 75 57 S14 29.85F HX 103  
INDIANAPOLIS FAIR 91 74 57 S14 29.87F HX 100  
 

 
MIZ043>046-050>051-056>058-064>065-071>073-077>080-182300-  
SOUTHWEST LOWER MICHIGAN  
 
CITY SKY/WX TMP DP RH WIND PRES REMARKS
 
BATTLE CREEK FAIR 85 72 65 S13 29.80R  
BENTON HARBOR FAIR 84 72 67 SW13G24 29.76S  
COLDWATER* FAIR 82 72 73 S5 29.81S  
HILLSDALE* FAIR 81 71 71 S7 29.83R  
HOLLAND FAIR 84 72 67 SW14G24 29.78R  
GRAND RAPIDS FAIR 86 72 62 SW9 29.78R  
KALAMAZOO FAIR 85 70 60 S14 29.79R  
STURGIS* FAIR 83 74 73 SW12 29.79S  
THREE RIVERS* FAIR 84 73 68 S9 29.80R  
 

 
OHZ001>008-015>018-024>025-182300-  
NORTHWEST OHIO  
 
CITY SKY/WX TMP DP RH WIND PRES REMARKS
 
WAUSEON* FAIR 82 82 100 S12 29.81S HX 97  
DEFIANCE FAIR 82 72 71 S10 29.81R  
FINDLAY FAIR 79 74 84 S14 29.81F  
OTTAWA* FAIR 77 70 78 S14 29.84S  
TOLEDO EXPRESS FAIR 82 73 74 VRB6 29.81S  
LIMA FAIR 77 72 84 S14 29.84F  
 

 
AND FOR LAKE MICHIGAN COASTAL AND OPEN LAKE BUOY OBSERVATIONS  
 
STATION/POSITION TEMP WIND PRES VSBY WAVE
 
AIR SEA DIR/SP/G HT/PER  
(F) (DEG/KT/KT) (MB) (MI) (FT/S)  
CALUMET HARBOR 83 190/ 10/ 18 1007.7  
MICHIGAN CITY 83 190/ 20/ 23 N/A  
BURNS HARBOR 83 190/ 9/ 12 1008.5F  
SAINT JOSEPH 80 220/ 8/ 13 1009.1  
SOUTH LAKE BUOY 72 70 210/ 17/ 19 1007.3F 4/ 5  
4 MI NW BRIDGMAN 80 77 200/ 12/ 16 1007.2 2/ 3  
MICHIGAN CITY 81 74 210/ 16/ 21 N/A 3/ 3  
 

 

 
 
 
CLICK HERE TO GO TO PREVIOUS BULLETINS.

The Nexlab IN Page
The Nexlab OH Page
The Nexlab MI Page Main Text Page